Regional Weather Roundup
Issued by NWS Kansas City/Pleasant Hill, MO

Home | Current Version | Previous Version | Graphics & Text | Print | Product List | Glossary Off
Versions: 1 2 3 4 5 6 7 8 9 10 11 12 13 14 15 16 17 18 19 20 21 22 23 24 25 26 27 28

000
ASUS43 KEAX 280210
RWREAX

WEATHER ROUNDUP FOR EASTERN KANSAS AND NORTHWEST MISSOURI
NATIONAL WEATHER SERVICE KANSAS CITY/PLEASANT HILL MO
900 PM CDT SAT AUG 27 2016

KSZ040-057-103>105-MOZ028-029-037-043-280300-
...KANSAS CITY METROPOLITAN AREA...

CITY           SKY/WX    TMP DP  RH WIND       PRES   REMARKS
K.C. INTL      LGT RAIN  73  68  84 S5        30.02R
K.C. DOWNTOWN  CLOUDY    76  70  82 CALM      30.01R
LEES SUMMIT    CLEAR     78  73  84 CALM      30.03R
OLATHE - IXD   CLOUDY    74  71  91 NE3       30.03R
OLATHE - OJC   CLOUDY    75  72  90 CALM      30.03R
LAWRENCE       PTCLDY    72  69  90 NE3       30.02R

$$

MOZ001>008-011>017-020>025-030>033-038>040-044>046-053-054-280300-
...NORTHERN AND CENTRAL MISSOURI...

CITY           SKY/WX    TMP DP  RH WIND       PRES   REMARKS
ST. JOSEPH     PTCLDY    75  72  90 N3        30.01R
MOSBY          CLOUDY    73  72  94 CALM      30.02R
WHITEMAN AFB   PTCLDY    77  75  93 SE5       30.01R
CLINTON        CLEAR     75  70  83 CALM      30.03R HAZE
SEDALIA        CLEAR     77  72  84 S6        30.04S
WARSAW         NOT AVBL
CHILLICOTHE    NOT AVBL
KIRKSVILLE     CLEAR     74  70  87 CALM      30.06R

$$

MOZ041-047>049-056>058-063>065-088>090-097-280300-
...EASTERN AND SOUTHERN MISSOURI...

CITY           SKY/WX    TMP DP  RH WIND       PRES   REMARKS
ST. LOUIS INTL CLOUDY    79  69  71 E6        30.06R THUNDER
SPIRIT OF STL  PTCLDY    78  75  90 NE8       30.04R
COLUMBIA       CLOUDY    79  73  82 SE5       30.05R
JEFFERSON CITY CLOUDY    79  75  87 SE3       30.03R
ROLLA          MOCLDY    75  73  93 CALM      30.06R
OSAGE BEACH    CLOUDY    75  73  93 SE3       30.06R
SPRINGFIELD    MOCLDY    80  70  71 S6        30.07R
BRANSON        MOCLDY    73  72  94 CALM      30.09R
JOPLIN         CLOUDY    81  70  69 SE6       30.04R
WEST PLAINS    CLEAR     76  71  85 CALM      30.10R

$$

IAZ060-094-KSZ022-034>040-054-083-096-NEZ052-066-093-280300-
...KANSAS...SOUTHEAST NEBRASKA AND IOWA...

CITY           SKY/WX    TMP DP  RH WIND       PRES   REMARKS
TOPEKA         CLOUDY    78  69  73 SE6       30.01R
MANHATTAN      CLEAR     78  72  81 CALM      30.00R
EMPORIA        CLOUDY    73  70  90 E7        30.01R
CHANUTE        CLOUDY    82  73  74 CALM      30.01R
WICHITA        PTCLDY    81  70  69 SE8       30.00R
OMAHA          PTCLDY    75  67  76 E6        30.01R
LINCOLN        CLEAR     76  64  66 SE3       30.01R
FALLS CITY     CLEAR     76  70  82 CALM      30.01R
LAMONI         CLEAR     73  71  93 CALM      30.04R
DES MOINES     MOCLDY    75  69  81 SE5       30.03R

$$





USA.gov is the U.S. government's official web portal to all federal, state and local government web resources and services.